sat.trackr.live / text

‹ back to catalog

STARLINK-6206

NORAD 56876 · 2023-083A

PAYLOAD ACTIVE UNKNOWN

§ Identity

Operator
Country
US
Launch date
2023-06-12
Launch site
AFETR
Launch vehicle
Mass (kg)
RCS (m²)

Purposes: comms

External: N2YO · Heavens-Above · Gunter

§ Orbital elements

Epoch: 2026-05-25T00:47:46.455648Z

Period
94.27 min
Inclination
43.0072°
Eccentricity
0.0001544
Mean motion
15.27579118 rev/d
Perigee alt
482.0 km
Apogee alt
484.1 km
Semi-major
6,861.2 km
B*
2.1125e-5
RAAN
14.2670°
Arg perigee
267.1641°
Mean anomaly
92.9034°
Rev number
16,330

§ Raw data

STARLINK-62061 56876U 23083A   26145.03317657  .00000319  00000+0  21125-4 0  99952 56876  43.0072  14.2670 0001544 267.1641  92.9034 15.27579118163307

JSON: /api/v1/satellites/56876 · /tle

For live sub-satellite position, see the globe view (requires WebGL).

§ Visibility from observer

Set your observer location to see the next 7 days of passes ≥ 10°. The values pass through the URL so the page stays shareable.

No JS? Fill the form by hand. The geolocation button needs JavaScript.